weather.gov     
National Weather Service

Terminal Aerodrome Forecast
NWS Homepage
This page is being discontinued on March 12, 2014.
The same data is available at this site. Please update your bookmarks.
Thank you, and we apologize for the inconvenience.
Please send an email to SR-SRH.Webmaster@noaa.gov with any concerns.


Current Version
Previous Version:    01  02  03  04  05  06  07  08  09  10  11  12  13  14  15  16  17  18  19  20  21  22  23  24  25  26  27  
[Printable]
906
FTUS44 KMOB 200100 AAA
TAFPNS
TAF AMD
KPNS 200154Z 2002/2024 03008KT P6SM FEW040 BKN050 OVC110
     FM200400 05008KT 4SM -RA BR OVC015
      TEMPO 2004/2008 1SM +RA BR OVC008
     FM200800 04009KT 4SM BR VCSH OVC008
     FM201600 03010KT 4SM BR VCSH OVC015=


U.S. Dept. of Commerce
NOAA National Weather Service
1325 East West Highway
Silver Spring, MD 20910
E-mail: w-nws.webmaster@noaa.gov
Page last modified: May 16, 2007
NATIONAL WEATHER SERVICE: for Safety, for Work, for Fun - FOR LIFE